Date String (YYYY-MM-DD hh:mm:ss) UTC,Instrument flags,absolute air pressure of the measurement (hPa),sample flow rate (lpm),inlet stack bypass flow (lpm),air temperature of the measurement (°C),ambient temperature measured by the external sensor (°C),aerosol sample conditioner tube jacket temperature (°C),OPC LED temperature (°C),internal box temperature (°C),relative humidity of the measurement (%),span deviation,mass concentration of particles derived from Lorenz-Mie calculation of OPC scattering (μg/m³),mass concentration of particles derived from Lorenz-Mie calculation of OPC scattering (μg/m³),mass concentration of particles derived from Lorenz-Mie calculation of OPC scattering (μg/m³)
DateTimeUTC,F1_M11,P_M11,Q1_M11,Q2_M11,T1_M11,T2_M11,T3_M11,T4_M11,T5_M11,U1_M11,ZSPAN_M11,X2_M11,X0_M11,X1_M11
2023-09-17 19:00:00,SystemResetWarning,0834.2,5.01,000.00,027.6,024.2,000.0,035.9,028.9,22.0,0000.0,0003.71,0005.88,0003.38
2023-09-17 19:01:00,SystemResetWarning,0834.2,5.01,000.00,027.5,024.5,000.0,035.9,028.9,21.4,0000.0,0003.69,0005.74,0003.38
2023-09-17 19:02:00,SystemResetWarning,0834.2,4.98,000.00,027.5,024.9,000.0,035.9,028.9,20.8,0000.0,0003.69,0006.73,0003.37
2023-09-17 19:03:00,SystemResetWarning,0834.2,5.00,000.00,027.5,025.3,000.0,035.9,029.0,20.2,0000.0,0003.65,0006.58,0003.36
2023-09-17 19:04:00,SystemResetWarning,0834.1,5.01,000.00,027.6,025.6,000.0,035.9,029.1,20.2,0000.0,0003.62,0006.42,0003.35
2023-09-17 19:05:00,SystemResetWarning,0834.1,5.01,000.00,027.6,025.9,000.0,035.9,029.2,20.1,0000.0,0003.61,0006.28,0003.35
2023-09-17 19:06:00,SystemResetWarning,0834.2,4.99,000.00,027.6,026.2,000.0,036.0,029.3,20.8,0000.0,0003.61,0006.55,0003.35
2023-09-17 19:07:00,SystemResetWarning,0834.2,4.99,000.00,027.7,026.4,000.0,036.0,029.4,21.2,0000.0,0003.64,0007.42,0003.35
2023-09-17 19:08:00,SystemResetWarning,0834.2,5.00,000.00,027.7,026.6,000.0,036.0,029.4,20.7,0000.0,0003.65,0007.46,0003.36
2023-09-17 19:09:00,SystemResetWarning,0834.2,5.00,000.00,027.8,026.8,000.0,036.0,029.5,20.7,0000.0,0003.65,0007.78,0003.36
2023-09-17 19:10:00,SystemResetWarning,0834.1,4.99,000.00,027.8,026.4,000.0,036.0,029.4,20.6,0000.0,0003.64,0007.92,0003.35
2023-09-17 19:11:00,SystemResetWarning,0834.1,5.00,000.00,027.7,024.8,000.0,036.0,028.9,20.0,0000.0,0003.62,0008.32,0003.34
2023-09-17 19:12:00,SystemResetWarning,0834.1,5.01,000.00,027.6,024.1,000.0,035.9,028.8,20.9,0000.0,0003.64,0008.32,0003.34
2023-09-17 19:13:00,SystemResetWarning,0834.0,5.01,000.00,027.6,024.2,000.0,035.9,028.9,21.4,0000.0,0003.63,0007.92,0003.34
2023-09-17 19:14:00,SystemResetWarning,0834.0,5.00,000.00,027.5,024.6,000.0,035.9,028.8,22.0,0000.0,0003.65,0007.80,0003.35
2023-09-17 19:15:00,SystemResetWarning,0834.0,4.99,000.00,027.5,025.0,000.0,035.9,028.9,21.6,0000.0,0003.65,0007.87,0003.34
2023-09-17 19:16:00,SystemResetWarning,0834.0,5.00,000.00,027.5,025.4,000.0,035.9,029.0,21.0,0000.0,0003.68,0007.96,0003.35
2023-09-17 19:17:00,SystemResetWarning,0834.0,5.01,000.00,027.6,025.7,000.0,035.9,029.1,21.3,0000.0,0003.67,0007.87,0003.35
2023-09-17 19:18:00,SystemResetWarning,0834.0,5.00,000.00,027.6,026.0,000.0,035.9,029.2,21.8,0000.0,0003.65,0007.25,0003.35
2023-09-17 19:19:00,SystemResetWarning,0834.0,5.00,000.00,027.6,026.3,000.0,035.9,029.3,23.4,0000.0,0003.64,0007.28,0003.35
2023-09-17 19:20:00,SystemResetWarning,0834.0,5.00,000.00,027.7,026.5,000.0,036.0,029.3,22.7,0000.0,0003.62,0006.70,0003.34
2023-09-17 19:21:00,SystemResetWarning,0834.0,5.00,000.00,027.7,026.7,000.0,036.0,029.4,20.1,0000.0,0003.63,0006.77,0003.33
2023-09-17 19:22:00,SystemResetWarning,0834.0,5.00,000.00,027.8,026.8,000.0,036.0,029.5,21.3,0000.0,0003.66,0006.03,0003.34
2023-09-17 19:23:00,SystemResetWarning,0834.0,4.99,000.00,027.8,026.8,000.0,036.0,029.5,21.8,0000.0,0003.65,0005.97,0003.34
2023-09-17 19:24:00,SystemResetWarning,0833.9,4.99,000.00,027.8,025.4,000.0,036.0,029.1,22.5,0000.0,0003.66,0006.20,0003.33
2023-09-17 19:25:00,SystemResetWarning,0833.9,5.01,000.00,027.6,024.1,000.0,035.9,028.8,22.6,0000.0,0003.67,0006.28,0003.34
2023-09-17 19:26:00,SystemResetWarning,0834.0,5.01,000.00,027.6,024.1,000.0,035.9,028.8,20.9,0000.0,0003.69,0006.24,0003.34
2023-09-17 19:27:00,SystemResetWarning,0833.9,5.00,000.00,027.5,024.4,000.0,035.9,028.9,21.2,0000.0,0003.67,0006.08,0003.33
2023-09-17 19:28:00,SystemResetWarning,0833.9,4.99,000.00,027.5,024.8,000.0,035.9,028.9,21.7,0000.0,0003.68,0006.26,0003.33
2023-09-17 19:29:00,SystemResetWarning,0833.9,4.99,000.00,027.5,025.2,000.0,035.9,029.0,21.7,0000.0,0003.67,0006.30,0003.32
2023-09-17 19:30:00,SystemResetWarning,0833.8,5.01,000.00,027.5,025.6,000.0,035.9,029.1,21.7,0000.0,0003.64,0006.19,0003.32
2023-09-17 19:31:00,SystemResetWarning,0833.8,5.01,000.00,027.6,025.9,000.0,035.9,029.2,22.4,0000.0,0003.67,0006.23,0003.32
2023-09-17 19:32:00,SystemResetWarning,0833.8,5.00,000.00,027.6,026.2,000.0,035.9,029.3,22.4,0000.0,0003.68,0006.26,0003.34
2023-09-17 19:33:00,SystemResetWarning,0833.9,5.00,000.00,027.7,026.4,000.0,036.0,029.3,23.3,0000.0,0003.68,0006.20,0003.35
2023-09-17 19:34:00,SystemResetWarning,0833.9,5.00,000.00,027.7,026.6,000.0,036.0,029.4,22.9,0000.0,0003.70,0006.52,0003.36
2023-09-17 19:35:00,SystemResetWarning,0833.9,5.00,000.00,027.8,026.8,000.0,036.0,029.5,22.8,0000.0,0003.72,0006.73,0003.38
2023-09-17 19:36:00,SystemResetWarning,0833.8,4.99,000.00,027.8,026.9,000.0,036.0,029.5,22.8,0000.0,0003.72,0006.87,0003.39
2023-09-17 19:37:00,SystemResetWarning,0833.8,4.99,000.00,027.8,026.0,000.0,036.0,029.3,22.6,0000.0,0003.75,0007.49,0003.40
2023-09-17 19:38:00,SystemResetWarning,0833.8,5.01,000.00,027.7,024.4,000.0,035.9,028.8,22.3,0000.0,0003.77,0007.78,0003.41
2023-09-17 19:39:00,SystemResetWarning,0833.8,5.01,000.00,027.6,024.0,000.0,035.9,028.8,22.7,0000.0,0003.77,0007.76,0003.42
2023-09-17 19:40:00,SystemResetWarning,0833.8,5.01,000.00,027.5,024.3,000.0,035.9,028.9,23.2,0000.0,0003.78,0007.71,0003.42
2023-09-17 19:41:00,SystemResetWarning,0833.8,5.00,000.00,027.5,024.7,000.0,035.9,028.9,23.2,0000.0,0003.77,0007.65,0003.42
2023-09-17 19:42:00,SystemResetWarning,0833.7,4.99,000.00,027.5,025.1,000.0,035.9,029.0,22.9,0000.0,0003.77,0007.62,0003.42
2023-09-17 19:43:00,SystemResetWarning,0833.8,5.00,000.00,027.5,025.5,000.0,035.9,029.1,22.8,0000.0,0003.75,0007.59,0003.41
2023-09-17 19:44:00,SystemResetWarning,0833.7,5.00,000.00,027.6,025.8,000.0,035.9,029.2,23.5,0000.0,0003.74,0007.56,0003.39
2023-09-17 19:45:00,SystemResetWarning,0833.8,5.00,000.00,027.6,026.1,000.0,035.9,029.3,23.8,0000.0,0003.73,0007.53,0003.39
2023-09-17 19:46:00,SystemResetWarning,0833.7,4.99,000.00,027.7,026.4,000.0,036.0,029.3,23.3,0000.0,0003.72,0007.11,0003.39
2023-09-17 19:47:00,SystemResetWarning,0833.8,5.00,000.00,027.7,026.6,000.0,036.0,029.4,23.0,0000.0,0003.70,0007.06,0003.39
2023-09-17 19:48:00,SystemResetWarning,0833.8,4.99,000.00,027.8,026.8,000.0,036.0,029.5,23.3,0000.0,0003.68,0006.41,0003.38
2023-09-17 19:49:00,SystemResetWarning,0833.7,5.00,000.00,027.8,026.9,000.0,036.1,029.5,23.3,0000.0,0003.67,0005.62,0003.38
2023-09-17 19:50:00,SystemResetWarning,0833.7,4.99,000.00,027.9,026.5,000.0,036.1,029.5,22.4,0000.0,0003.68,0005.60,0003.39
2023-09-17 19:51:00,SystemResetWarning,0833.7,4.99,000.00,027.8,024.9,000.0,036.0,029.0,22.3,0000.0,0003.66,0005.50,0003.39
2023-09-17 19:52:00,SystemResetWarning,0833.7,5.01,000.00,027.7,024.0,000.0,035.9,028.9,22.1,0000.0,0003.67,0005.63,0003.39
2023-09-17 19:53:00,SystemResetWarning,0833.7,5.01,000.00,027.6,024.2,000.0,035.9,028.9,22.2,0000.0,0003.67,0005.70,0003.40
2023-09-17 19:54:00,SystemResetWarning,0833.7,5.01,000.00,027.5,024.6,000.0,035.9,028.9,21.8,0000.0,0003.67,0005.77,0003.41
2023-09-17 19:55:00,SystemResetWarning,0833.6,5.00,000.00,027.5,025.0,000.0,035.9,029.0,21.7,0000.0,0003.69,0005.98,0003.43
2023-09-17 19:56:00,SystemResetWarning,0833.7,5.00,000.00,027.6,025.4,000.0,035.9,029.1,21.6,0000.0,0003.71,0006.47,0003.44
2023-09-17 19:57:00,SystemResetWarning,0833.6,5.00,000.00,027.6,025.7,000.0,035.9,029.1,21.6,0000.0,0003.72,0007.33,0003.44
2023-09-17 19:58:00,SystemResetWarning,0833.6,4.99,000.00,027.6,026.0,000.0,035.9,029.2,21.0,0000.0,0003.73,0007.31,0003.43
2023-09-17 19:59:00,SystemResetWarning,0833.6,5.00,000.00,027.7,026.3,000.0,036.0,029.3,21.0,0000.0,0003.72,0007.79,0003.44
